TimeCST,TemperatureF,Dew PointF,Humidity,Sea Level PressureIn,VisibilityMPH,Wind Direction,Wind SpeedMPH,Gust SpeedMPH,PrecipitationIn,Events,Conditions,WindDirDegrees,DateUTC
12:52 AM,17.1,10.9,77,30.39,10.0,ESE,4.6,-,N/A,,Clear,110,2013-02-21 06:52:00
1:52 AM,15.1,10.0,80,30.38,10.0,East,4.6,-,N/A,,Clear,90,2013-02-21 07:52:00
2:52 AM,12.9,8.1,81,30.39,10.0,Calm,Calm,-,N/A,,Clear,0,2013-02-21 08:52:00
3:52 AM,10.9,7.0,84,30.38,10.0,Calm,Calm,-,N/A,,Clear,0,2013-02-21 09:52:00
4:52 AM,12.9,8.1,81,30.33,10.0,ENE,9.2,-,N/A,,Clear,60,2013-02-21 10:52:00
5:52 AM,12.0,8.1,84,30.38,10.0,ESE,3.5,-,N/A,,Clear,120,2013-02-21 11:52:00
6:52 AM,14.0,8.6,79,30.29,10.0,ENE,10.4,-,N/A,,Clear,60,2013-02-21 12:52:00
7:52 AM,16.0,10.9,81,30.38,10.0,East,6.9,-,N/A,,Clear,100,2013-02-21 13:52:00
8:52 AM,18.0,10.9,74,30.35,10.0,East,12.7,-,N/A,,Clear,80,2013-02-21 14:52:00
9:52 AM,19.9,12.9,74,30.35,10.0,ENE,8.1,-,N/A,,Clear,70,2013-02-21 15:52:00
10:14 AM,21.2,12.2,68,30.31,10.0,East,8.1,-,N/A,,Mostly Cloudy,80,2013-02-21 16:14:00
10:52 AM,23.0,15.1,72,30.31,10.0,ENE,10.4,-,N/A,,Overcast,70,2013-02-21 16:52:00
11:52 AM,24.1,18.0,77,30.27,10.0,ENE,15.0,-,N/A,,Overcast,70,2013-02-21 17:52:00
12:42 PM,24.8,19.4,80,30.18,10.0,ENE,13.8,-,N/A,,Overcast,60,2013-02-21 18:42:00
12:52 PM,25.0,19.9,81,30.20,10.0,ENE,15.0,-,N/A,,Overcast,60,2013-02-21 18:52:00
1:52 PM,27.0,21.9,81,30.21,10.0,East,13.8,-,N/A,,Overcast,80,2013-02-21 19:52:00
2:52 PM,27.0,23.0,85,30.17,10.0,ENE,18.4,-,N/A,,Overcast,70,2013-02-21 20:52:00
3:52 PM,27.0,23.0,85,30.12,10.0,ENE,16.1,-,N/A,,Overcast,70,2013-02-21 21:52:00
4:52 PM,28.0,24.1,85,30.10,10.0,East,13.8,-,N/A,,Overcast,80,2013-02-21 22:52:00
5:52 PM,28.0,24.1,85,30.06,8.0,East,18.4,-,0.00,Snow,Light Snow,80,2013-02-21 23:52:00
6:52 PM,28.9,23.0,78,30.01,10.0,East,27.6,36.8,0.00,,Overcast,90,2013-02-22 00:52:00
7:33 PM,28.4,23.0,80,29.96,3.0,ENE,21.9,33.4,0.00,Snow,Light Snow,70,2013-02-22 01:33:00
7:52 PM,27.0,23.0,85,29.99,4.0,East,20.7,31.1,0.00,Snow,Light Snow,80,2013-02-22 01:52:00
8:07 PM,26.6,21.2,80,29.95,1.8,ENE,24.2,32.2,0.00,Snow,Light Snow,70,2013-02-22 02:07:00
8:19 PM,26.6,23.0,86,29.95,1.0,East,21.9,33.4,0.00,Snow,Light Snow,80,2013-02-22 02:19:00
8:49 PM,26.6,23.0,86,29.95,0.8,East,20.7,-,0.03,Snow,Light Snow,80,2013-02-22 02:49:00
8:52 PM,26.1,23.0,88,29.98,0.8,East,23.0,29.9,0.03,Snow,Light Snow,80,2013-02-22 02:52:00
9:08 PM,24.8,21.2,86,29.95,0.5,East,25.3,29.9,0.00,Fog-Snow,Snow,80,2013-02-22 03:08:00
9:52 PM,25.0,21.9,88,29.95,0.5,East,19.6,27.6,0.05,Fog-Snow,Snow,90,2013-02-22 03:52:00
10:08 PM,24.8,21.2,86,29.92,1.0,East,18.4,-,0.02,Snow,Light Snow,90,2013-02-22 04:08:00
10:19 PM,24.8,21.2,86,29.92,1.2,East,21.9,25.3,0.03,Snow,Light Snow,80,2013-02-22 04:19:00
10:45 PM,24.8,21.2,86,29.91,0.8,East,18.4,26.5,0.05,Snow,Light Snow,90,2013-02-22 04:45:00
10:52 PM,25.0,21.9,88,29.94,0.8,East,18.4,-,0.06,Snow,Light Snow,90,2013-02-22 04:52:00
11:42 PM,24.8,21.2,86,29.89,1.0,East,18.4,-,0.04,Snow,Light Snow,80,2013-02-22 05:42:00
11:52 PM,25.0,21.9,88,29.91,1.2,East,15.0,-,0.04,Snow,Light Snow,90,2013-02-22 05:52:00